Regional Weather Roundup
Issued by NWS Charleston, WV

Home | Current Version | Previous Version | Text Only | Print | Product List | Glossary On
Versions: 1 2 3 4 5 6 7 8 9 10 11 12 13 14 15 16 17 18 19 20 21 22 23 24 25 26
000
ASUS41 KRLX 262110
RWRRLX
West Virginia Regional Weather Roundup
National Weather Service Charleston WV
500 PM EDT THU MAY 26 2016

Note: "fair" indicates few or no clouds below 12,000 feet with no
significant weather and/or obstructions to visibility.

WVZ003-262200-
Northern Panhandle of West Virginia

CITY           SKY/WX    TMP DP  RH WIND       PRES   REMARKS
WHEELING         N/A     80  62  54 SW8       30.04F
$$

WVZ009-262200-
Northwest West Virginia

CITY           SKY/WX    TMP DP  RH WIND       PRES   REMARKS
PARKERSBURG    PTSUNNY   78  65  63 SW8       30.07F
$$

WVZ006-262200-
Western West Virginia

CITY           SKY/WX    TMP DP  RH WIND       PRES   REMARKS
HUNTINGTON     PTSUNNY   78  66  66 S8        30.06F
$$

WVZ015-262200-
West Central West Virginia

CITY           SKY/WX    TMP DP  RH WIND       PRES   REMARKS
CHARLESTON       N/A     78  62  57 SW8       30.08F
$$

WVZ022-031-262200-
North Central West Virginia

CITY           SKY/WX    TMP DP  RH WIND       PRES   REMARKS
CLARKSBURG       N/A     80  63  55 SW10      30.06F
MORGANTOWN     PTSUNNY   75  61  61 W6        30.07F
$$

WVZ025-035-042-045-262200-
Southern West Virginia

CITY           SKY/WX    TMP DP  RH WIND       PRES   REMARKS
BECKLEY        PTSUNNY   71  61  70 SW8       30.17F
LOGAN            N/A     73  64  73 CALM      30.12F
BLUEFIELD      CLOUDY    72  60  66 W10       30.19F
LEWISBURG      CLOUDY    73  59  62 W7        30.16F
$$

WVZ047-262200-
Northern Mountains of West Virginia

CITY           SKY/WX    TMP DP  RH WIND       PRES   REMARKS
ELKINS         PTSUNNY   77  58  51 SW9       30.11F
$$

WVZ052-262200-
Eastern Panhandle of West Virginia

CITY           SKY/WX    TMP DP  RH WIND       PRES   REMARKS
MARTINSBURG    PTSUNNY   84  64  50 S8        30.02F
PETERSBURG     LGT RAIN  75  69  82 NW6       30.07R
$$




USA.gov is the U.S. government's official web portal to all federal, state and local government web resources and services.